• In Uzbekistan
  • List of Countries
  • For 7 days
  • Water Temperature
  • Satellite Maps
  • Weather Map
  • Weather Widgets
  • user-avatar
    Login

    Hourly Weather Tashkent

    Today, 17 January, Wednesday

    Time Temperature Precipitation Wind Pressure Humidity
    00:00 0°C° 0 mm 1 mps 726 mmHg 71%
    01:00 0°C° 0 mm 1 mps 726 mmHg 71%
    02:00 0°C° 0 mm 1 mps 726 mmHg 71%
    03:00 0°C° 0 mm 1 mps 726 mmHg 71%
    04:00 0°C° 0 mm 1 mps 726 mmHg 71%
    05:00 0°C° 0 mm 1 mps 726 mmHg 74%
    06:00 0°C° 0 mm 1 mps 727 mmHg 74%
    07:00 0°C° 0 mm 1 mps 727 mmHg 74%
    08:00 0°C° 0 mm 1 mps 727 mmHg 74%
    09:00 0°C° 0 mm 1 mps 727 mmHg 70%
    10:00 +1°C° 0 mm 1 mps 727 mmHg 67%
    11:00 +2°C° 0 mm 1 mps 727 mmHg 63%
    12:00 +3°C° 0 mm 1 mps 727 mmHg 60%
    13:00 +3°C° 0 mm 1 mps 727 mmHg 58%
    14:00 +4°C° 0 mm 1 mps 727 mmHg 56%
    15:00 +4°C° 0 mm 1 mps 728 mmHg 57%
    16:00 +3°C° 0 mm 1 mps 728 mmHg 59%
    17:00 +3°C° 0 mm 1 mps 728 mmHg 60%
    18:00 +3°C° 0 mm 1 mps 728 mmHg 61%
    19:00 +2°C° 0 mm 1 mps 729 mmHg 63%
    20:00 +1°C° 0 mm 1 mps 729 mmHg 64%
    21:00 +1°C° 0 mm 1 mps 729 mmHg 64%
    22:00 +1°C° 0 mm 1 mps 729 mmHg 64%
    23:00 +1°C° 0 mm 1 mps 729 mmHg 64%

    Tomorrow, 18 January, Thursday

    Time Temperature Precipitation Wind Pressure Humidity
    00:00 +1°C° 0 mm 1 mps 729 mmHg 63%
    01:00 +1°C° 0 mm 1 mps 729 mmHg 62%
    02:00 +1°C° 0 mm 1 mps 729 mmHg 62%
    03:00 +1°C° 0 mm 1 mps 728 mmHg 60%
    04:00 +1°C° 0 mm 1 mps 728 mmHg 59%
    05:00 +1°C° 0 mm 1 mps 728 mmHg 58%
    06:00 +1°C° 0 mm 1 mps 728 mmHg 56%
    07:00 +1°C° 0 mm 1 mps 728 mmHg 55%
    08:00 +2°C° 0 mm 1 mps 728 mmHg 53%
    09:00 +3°C° 0 mm 1 mps 728 mmHg 49%
    10:00 +5°C° 0 mm 1 mps 727 mmHg 44%
    11:00 +6°C° 0 mm 1 mps 727 mmHg 40%
    12:00 +7°C° 0 mm 1 mps 727 mmHg 39%
    13:00 +8°C° 0 mm 1 mps 727 mmHg 37%
    14:00 +9°C° 0 mm 1 mps 726 mmHg 36%
    15:00 +8°C° 0 mm 1 mps 726 mmHg 38%
    16:00 +7°C° 0 mm 1 mps 726 mmHg 41%
    17:00 +7°C° 0 mm 1 mps 726 mmHg 43%
    18:00 +5°C° 0 mm 2 mps 726 mmHg 44%
    19:00 +5°C° 0 mm 2 mps 726 mmHg 45%
    20:00 +4°C° 0 mm 2 mps 726 mmHg 46%
    21:00 +4°C° 0 mm 2 mps 726 mmHg 45%
    22:00 +4°C° 0 mm 2 mps 725 mmHg 44%
    23:00 +4°C° 0 mm 2 mps 725 mmHg 42%

    Day after tomorrow, 19 January, Friday

    Time Temperature Precipitation Wind Pressure Humidity
    00:00 +4°C° 0 mm 2 mps 725 mmHg 42%
    01:00 +5°C° 0 mm 2 mps 725 mmHg 41%
    02:00 +5°C° 0 mm 2 mps 725 mmHg 41%
    03:00 +5°C° 0 mm 2 mps 725 mmHg 42%
    04:00 +5°C° 0 mm 2 mps 725 mmHg 44%
    05:00 +5°C° 0 mm 2 mps 725 mmHg 45%
    06:00 +5°C° 0 mm 2 mps 725 mmHg 48%
    07:00 +4°C° 0 mm 3 mps 725 mmHg 50%
    08:00 +4°C° 0 mm 3 mps 725 mmHg 52%
    09:00 +7°C° 0 mm 3 mps 725 mmHg 49%
    10:00 +8°C° 0 mm 4 mps 726 mmHg 46%
    11:00 +10°C° 0 mm 5 mps 726 mmHg 43%
    12:00 +12°C° 0 mm 5 mps 726 mmHg 41%
    13:00 +13°C° 0 mm 5 mps 725 mmHg 39%
    14:00 +14°C° 0 mm 5 mps 725 mmHg 37%
    15:00 +13°C° 0 mm 4 mps 725 mmHg 38%
    16:00 +12°C° 0 mm 4 mps 726 mmHg 40%
    17:00 +11°C° 0 mm 4 mps 726 mmHg 42%
    18:00 +10°C° 0 mm 4 mps 726 mmHg 42%
    19:00 +8°C° 0 mm 4 mps 727 mmHg 41%
    20:00 +7°C° 0 mm 4 mps 727 mmHg 41%
    21:00 +8°C° 0 mm 3 mps 727 mmHg 40%
    22:00 +8°C° 0 mm 3 mps 727 mmHg 39%
    23:00 +8°C° 0 mm 3 mps 727 mmHg 38%

    20 January, Saturday

    Time Temperature Precipitation Wind Pressure Humidity
    00:00 +8°C° 0 mm 3 mps 727 mmHg 38%
    01:00 +7°C° 0 mm 3 mps 727 mmHg 37%
    02:00 +7°C° 0 mm 3 mps 727 mmHg 37%
    03:00 +7°C° 0 mm 3 mps 727 mmHg 37%
    04:00 +7°C° 0 mm 3 mps 727 mmHg 36%
    05:00 +7°C° 0 mm 3 mps 726 mmHg 36%
    06:00 +7°C° 0 mm 3 mps 726 mmHg 35%
    07:00 +7°C° 0 mm 3 mps 726 mmHg 35%
    08:00 +5°C° 0 mm 3 mps 726 mmHg 34%
    09:00 +8°C° 0 mm 3 mps 726 mmHg 32%
    10:00 +10°C° 0 mm 2 mps 726 mmHg 30%
    11:00 +13°C° 0 mm 2 mps 726 mmHg 28%
    12:00 +14°C° 0 mm 2 mps 725 mmHg 27%
    13:00 +15°C° 0 mm 2 mps 725 mmHg 26%
    14:00 +16°C° 0 mm 2 mps 724 mmHg 25%
    15:00 +15°C° 0 mm 2 mps 724 mmHg 28%
    16:00 +14°C° 0 mm 2 mps 724 mmHg 30%
    17:00 +13°C° 0 mm 2 mps 723 mmHg 33%
    18:00 +12°C° 0 mm 2 mps 723 mmHg 34%
    19:00 +10°C° 0 mm 2 mps 723 mmHg 34%
    20:00 +9°C° 0 mm 2 mps 723 mmHg 35%
    21:00 +9°C° 0 mm 2 mps 723 mmHg 34%
    22:00 +8°C° 0 mm 2 mps 722 mmHg 33%
    23:00 +8°C° 0 mm 2 mps 722 mmHg 32%

    21 January, Sunday

    Time Temperature Precipitation Wind Pressure Humidity
    00:00 +8°C° 0 mm 2 mps 722 mmHg 32%
    01:00 +7°C° 0 mm 2 mps 721 mmHg 32%
    02:00 +7°C° 0 mm 2 mps 721 mmHg 32%
    03:00 +7°C° 0 mm 2 mps 721 mmHg 32%
    04:00 +7°C° 0 mm 2 mps 721 mmHg 32%
    05:00 +6°C° 0 mm 2 mps 721 mmHg 32%
    06:00 +6°C° 0 mm 2 mps 721 mmHg 32%
    07:00 +6°C° 0 mm 2 mps 721 mmHg 32%
    08:00 +6°C° 0 mm 2 mps 721 mmHg 31%
    09:00 +9°C° 0 mm 1 mps 721 mmHg 29%
    10:00 +11°C° 0 mm 1 mps 721 mmHg 27%
    11:00 +13°C° 0 mm 1 mps 721 mmHg 25%
    12:00 +14°C° 0 mm 1 mps 721 mmHg 24%
    13:00 +15°C° 0 mm 1 mps 721 mmHg 23%
    14:00 +16°C° 0 mm 1 mps 720 mmHg 22%
    15:00 +15°C° 0 mm 1 mps 720 mmHg 24%
    16:00 +14°C° 0 mm 1 mps 720 mmHg 26%
    17:00 +13°C° 0 mm 1 mps 720 mmHg 28%
    18:00 +12°C° 0 mm 1 mps 721 mmHg 29%
    19:00 +10°C° 0 mm 2 mps 721 mmHg 29%
    20:00 +9°C° 0 mm 2 mps 721 mmHg 30%
    21:00 +9°C° 0 mm 2 mps 721 mmHg 29%
    22:00 +9°C° 0 mm 2 mps 721 mmHg 28%
    23:00 +8°C° 0 mm 2 mps 721 mmHg 28%

    22 January, Monday

    Time Temperature Precipitation Wind Pressure Humidity
    00:00 +8°C° 0 mm 2 mps 721 mmHg 27%
    01:00 +8°C° 0 mm 2 mps 721 mmHg 27%
    02:00 +7°C° 0 mm 2 mps 721 mmHg 26%
    03:00 +8°C° 0 mm 1 mps 721 mmHg 26%
    04:00 +8°C° 0 mm 1 mps 721 mmHg 26%
    05:00 +8°C° 0 mm 1 mps 721 mmHg 26%
    06:00 +7°C° 0 mm 1 mps 721 mmHg 26%
    07:00 +7°C° 0 mm 1 mps 721 mmHg 27%
    08:00 +7°C° 0 mm 1 mps 721 mmHg 28%
    09:00 +8°C° 0 mm 1 mps 722 mmHg 27%
    10:00 +10°C° 0 mm 1 mps 722 mmHg 26%
    11:00 +12°C° 0 mm 2 mps 722 mmHg 25%
    12:00 +12°C° 0 mm 2 mps 722 mmHg 25%
    13:00 +13°C° 0 mm 2 mps 722 mmHg 26%
    14:00 +13°C° 0 mm 2 mps 721 mmHg 26%
    15:00 +13°C° 0 mm 2 mps 722 mmHg 29%
    16:00 +12°C° 0 mm 1 mps 722 mmHg 33%
    17:00 +11°C° 0 mm 1 mps 722 mmHg 36%
    18:00 +10°C° 0 mm 1 mps 722 mmHg 38%
    19:00 +9°C° 0 mm 1 mps 723 mmHg 41%
    20:00 +8°C° 0 mm 1 mps 723 mmHg 44%
    21:00 +8°C° 0 mm 1 mps 723 mmHg 45%
    22:00 +8°C° 0 mm 1 mps 723 mmHg 45%
    23:00 +7°C° 0 mm 1 mps 723 mmHg 46%
    Show more